This is the latest recevied weather packets stored in our database for station/object WX7FGZ-5. If no packets are shown the sender has not sent any weather packets the latest 10 day(s).
| Time | Temp. | Humidity | Pressure | Rain* | Wind** | Luminosity | Snow |
|---|---|---|---|---|---|---|---|
| 1777672679 | 15.56° C | 21% | 1020.1 hPa | 0 mm | - | 207 W/m² | - |
| 1777671789 | 16.11° C | 20% | 1020.3 hPa | 0 mm | - | 239 W/m² | - |
| 1777671478 | 15.56° C | 21% | 1020.3 hPa | 0 mm | - | 396 W/m² | - |
| 1777671179 | 15° C | 22% | 1020.5 hPa | 0 mm | - | 253 W/m² | - |
| 1777670879 | 15° C | 22% | 1020.5 hPa | 0 mm | - | 232 W/m² | - |
| 1777670579 | 15° C | 21% | 1020.7 hPa | 0 mm | - | 223 W/m² | - |
| 1777669688 | 16.67° C | 20% | 1021 hPa | 0 mm | - | 272 W/m² | - |
| 1777669380 | 16.67° C | 20% | 1020.9 hPa | 0 mm | - | 385 W/m² | - |
| 1777669080 | 17.22° C | 20% | 1020.9 hPa | 0 mm | - | 1209 W/m² | - |
| 1777669079 | 16.11° C | 22% | 1020.9 hPa | 0 mm | - | 570 W/m² | - |
| 1777668779 | 16.11° C | 22% | 1020.9 hPa | 0 mm | - | 570 W/m² | - |
| 1777667878 | 15.56° C | 21% | 1020.9 hPa | 0 mm | - | 313 W/m² | - |
| 1777667281 | 16.11° C | 20% | 1021 hPa | 0 mm | - | 352 W/m² | - |
| 1777666979 | 16.67° C | 21% | 1020.9 hPa | 0 mm | - | 1202 W/m² | - |
| 1777666432 | 16.11° C | 22% | 1020.9 hPa | 0 mm | - | 740 W/m² | - |
| 1777665832 | 15.56° C | 22% | 1020.9 hPa | 0 mm | - | 1013 W/m² | - |
| 1777665532 | 15.56° C | 23% | 1020.9 hPa | 0 mm | - | 840 W/m² | - |
| 1777665234 | 15.56° C | 23% | 1020.9 hPa | 0 mm | - | 452 W/m² | - |
| 1777664684 | 15° C | 22% | 1021 hPa | 0 mm | - | 320 W/m² | - |
| 1777664384 | 15° C | 22% | 1021.2 hPa | 0 mm | - | 285 W/m² | - |
| 1777664378 | 15° C | 22% | 1021.2 hPa | 0 mm | - | 264 W/m² | - |
| 1777664084 | 15° C | 22% | 1021.2 hPa | 0 mm | - | 264 W/m² | - |
| 1777663784 | 15.56° C | 22% | 1021.2 hPa | 0 mm | - | 248 W/m² | - |
| 1777663136 | 14.44° C | 22% | 1021.2 hPa | 0 mm | - | 390 W/m² | - |
| 1777662970 | 15° C | 23% | 1021.3 hPa | 0 mm | - | 374 W/m² | - |
* Rain latest hour (hover to see other rain measurements)
** Current wind speed in m/s (hover to see current wind gust speed)